SV1BYK-2 Weather Reports


Display with metric or nautical units.
time (UTC)temp
F
wind
direction
speed
MPH
gust
MPH
rain 1hr
in
rain 24hr
in
rain mn
in
humidity
%
barometer
mb
20260905072703 88 187 2.0 9.0 0.00 0.00 0.00 35 1010.4
20260905071803 87 263 4.0 8.0 0.00 0.00 0.00 35 1010.6
20260905070903 87 227 5.0 8.0 0.00 0.00 0.00 35 1010.3
20260905070215 87 229 3.0 11.0 0.00 0.00 0.00 35 1010.2
20260905065617 87 246 4.0 9.0 0.00 0.00 0.00 34 1010.4
20260905064503 87 246 2.0 6.0 0.00 0.00 0.00 35 1010.5
20260905063816 86 247 3.0 7.0 0.00 0.00 0.00 35 1010.4
20260905062704 86 247 2.0 11.0 0.00 0.00 0.00 35 1010.6
20260905061804 86 289 3.0 16.0 0.00 0.00 0.00 35 1010.3
20260905060904 85 296 3.0 11.0 0.00 0.00 0.00 35 1010.4
20260905060216 85 220 4.0 11.0 0.00 0.00 0.00 38 1010.5
20260905055617 84 296 1.0 6.0 0.00 0.00 0.00 41 1010.3
20260905054503 83 312 1.0 11.0 0.00 0.00 0.00 44 1010.5
20260905053603 82 306 8.0 11.0 0.00 0.00 0.00 45 1010.2
20260905052703 82 313 1.0 14.0 0.00 0.00 0.00 46 1010.1
20260905052017 81 303 8.0 17.0 0.00 0.00 0.00 47 1010.1
20260905050904 81 311 4.0 16.0 0.00 0.00 0.00 48 1010.0
20260905050004 80 322 4.0 11.0 0.00 0.00 0.00 49 1010.2
20260905045404 80 326 4.0 11.0 0.00 0.00 0.00 49 1010.0
20260905044715 80 306 3.0 6.0 0.00 0.00 0.00 50 1010.0
20260905043603 79 301 2.0 6.0 0.00 0.00 0.00 51 1010.2
20260905042915 79 289 2.0 7.0 0.00 0.00 0.00 52 1010.2
20260905041803 78 281 4.0 7.0 0.00 0.00 0.00 52 1009.7
20260905041115 79 288 3.0 4.0 0.00 0.00 0.00 52 1009.8
20260905040003 79 314 1.0 4.0 0.00 0.00 0.00 52 1009.6
20260905035614 79 309 2.0 6.0 0.00 0.00 0.00 52 1009.5
20260905034716 79 319 4.0 8.0 0.00 0.00 0.00 52 1009.5
20260905033604 79 280 6.0 7.0 0.00 0.00 0.00 53 1009.1
20260905032916 78 312 1.0 7.0 0.00 0.00 0.00 54 1009.3
20260905031804 79 302 2.0 9.0 0.00 0.00 0.00 54 1009.3
20260905031115 79 244 1.0 4.0 0.00 0.00 0.00 54 1009.1
20260905030213 79 307 1.0 11.0 0.00 0.00 0.00 54 1009.1
20260905025403 79 319 6.0 11.0 0.00 0.00 0.00 53 1009.1
20260905024717 79 302 2.0 9.0 0.00 0.00 0.00 52 1009.3
20260905023604 80 310 6.0 11.0 0.00 0.00 0.00 50 1009.2
20260905022916 79 6 1.0 2.0 0.00 0.00 0.00 47 1009.1
20260905022014 79 320 0.0 4.0 0.00 0.00 0.00 46 1009.4
20260905021116 78 67 0.0 2.0 0.00 0.00 0.00 47 1009.2
20260905020213 78 54 0.0 2.0 0.00 0.00 0.00 46 1009.3
20260905015403 79 331 0.0 2.0 0.00 0.00 0.00 45 1009.4
20260905014503 79 315 0.0 4.0 0.00 0.00 0.00 45 1009.5
20260905013603 80 315 1.0 4.0 0.00 0.00 0.00 44 1009.5
20260905012917 79 306 1.0 4.0 0.00 0.00 0.00 44 1009.4
20260905011803 80 307 4.0 6.0 0.00 0.00 0.00 44 1009.3
20260905010904 80 289 2.0 4.0 0.00 0.00 0.00 43 1009.3
20260905010004 80 288 0.0 4.0 0.00 0.00 0.00 43 1009.2
20260905005616 80 266 0.0 2.0 0.00 0.00 0.00 43 1009.2
20260905004713 80 286 1.0 2.0 0.00 0.00 0.00 43 1009.3
20260905003603 80 292 1.0 2.0 0.00 0.00 0.00 43 1009.1
20260905002912 80 292 0.0 2.0 0.00 0.00 0.00 42 1009.1
20260905001803 80 292 0.0 2.0 0.00 0.00 0.00 42 1009.3
20260905000903 80 292 0.0 2.0 0.00 0.00 0.00 42 1009.4
20260905000215 80 293 2.0 2.0 0.00 0.00 0.00 42 1009.4
20260904235616 80 330 0.0 2.0 0.00 0.00 0.00 42 1009.3
20260904234504 80 90 0.0 2.0 0.00 0.00 0.00 42 1009.5
20260904233816 80 90 0.0 2.0 0.00 0.00 0.00 41 1009.4
20260904232703 79 90 0.0 2.0 0.00 0.00 0.00 43 1009.3
20260904231803 80 90 1.0 2.0 0.00 0.00 0.00 42 1009.4
20260904230903 80 98 0.0 2.0 0.00 0.00 0.00 41 1009.6
20260904230004 80 0 0.0 0.0 0.00 0.00 0.00 41 1009.6
20260904225617 80 0 0.0 0.0 0.00 0.00 0.00 41 1009.4
20260904224503 80 180 0.0 2.0 0.00 0.00 0.00 41 1009.5
20260904223817 80 270 0.0 2.0 0.00 0.00 0.00 40 1009.7
20260904222704 81 283 1.0 2.0 0.00 0.00 0.00 40 1009.6
20260904222016 81 297 0.0 4.0 0.00 0.00 0.00 40 1009.7
20260904221113 82 280 1.0 4.0 0.00 0.00 0.00 39 1009.8
20260904220004 81 225 2.0 2.0 0.00 0.00 0.00 40 1009.8
20260904215403 81 209 0.0 2.0 0.00 0.00 0.00 40 1009.7
20260904214715 80 202 0.0 2.0 0.00 0.00 0.00 42 1010.1
20260904213817 80 0 0.0 0.0 0.00 0.00 0.00 42 1009.6
20260904212914 80 0 0.0 0.0 0.00 0.00 0.00 42 1009.8
20260904211803 81 202 0.0 2.0 0.00 0.00 0.00 41 1009.9
20260904210904 81 202 1.0 2.0 0.00 0.00 0.00 41 1009.6
20260904210222 80 0 0.0 0.0 0.00 0.00 0.00 42 1009.6
20260904205613 80 0 0.0 0.0 0.00 0.00 0.00 42 1009.7
20260904204504 81 0 0.0 0.0 0.00 0.00 0.00 42 1010.0
20260904203813 81 0 0.0 0.0 0.00 0.00 0.00 42 1010.0
20260904202915 81 247 0.0 2.0 0.00 0.00 0.00 42 1009.6
20260904201803 81 247 0.0 2.0 0.00 0.00 0.00 41 1010.2
20260904201115 81 247 0.0 2.0 0.00 0.00 0.00 41 1010.0
20260904200003 82 230 0.0 2.0 0.00 0.00 0.00 41 1009.9
20260904195403 82 225 0.0 2.0 0.00 0.00 0.00 40 1009.8
20260904194504 82 224 0.0 2.0 0.00 0.00 0.00 40 1009.9
20260904193604 82 245 0.0 2.0 0.00 0.00 0.00 39 1009.9
20260904192704 82 242 0.0 2.0 0.00 0.00 0.00 40 1009.6
20260904191804 82 222 1.0 2.0 0.00 0.00 0.00 41 1010.0
20260904191115 82 0 0.0 0.0 0.00 0.00 0.00 41 1009.8
20260904190218 82 0 0.0 0.0 0.00 0.00 0.00 41 1009.8
20260904185403 82 240 0.0 2.0 0.00 0.00 0.00 41 1009.9
20260904184503 83 208 0.0 2.0 0.00 0.00 0.00 41 1009.7
20260904183814 83 239 1.0 2.0 0.00 0.00 0.00 41 1009.9
20260904182704 83 225 0.0 2.0 0.00 0.00 0.00 41 1009.6
20260904182014 83 251 1.0 2.0 0.00 0.00 0.00 40 1009.4
20260904180904 84 252 2.0 4.0 0.00 0.00 0.00 40 1009.4
20260904180213 84 224 1.0 4.0 0.00 0.00 0.00 39 1009.1
20260904175403 85 305 2.0 6.0 0.00 0.00 0.00 38 1009.1
20260904174503 85 308 1.0 11.0 0.00 0.00 0.00 38 1009.1
20260904173603 85 285 3.0 13.0 0.00 0.00 0.00 37 1009.0
20260904172703 85 315 2.0 9.0 0.00 0.00 0.00 36 1009.0
20260904171803 86 299 2.0 15.0 0.00 0.00 0.00 35 1008.5
20260904170904 86 310 3.0 15.0 0.00 0.00 0.00 35 1008.4
20260904170214 86 324 4.0 15.0 0.00 0.00 0.00 35 1008.5
20260904165616 86 310 8.0 13.0 0.00 0.00 0.00 35 1008.5
20260904164713 87 329 3.0 11.0 0.00 0.00 0.00 34 1008.4
20260904163816 87 318 3.0 24.0 0.00 0.00 0.00 35 1008.2
20260904162918 87 329 8.0 24.0 0.00 0.00 0.00 34 1008.3
20260904161803 88 326 5.0 25.0 0.00 0.00 0.00 36 1008.1
20260904160903 87 290 11.0 25.0 0.00 0.00 0.00 37 1008.1
20260904160215 87 313 13.0 24.0 0.00 0.00 0.00 36 1007.7
20260904155403 88 281 13.0 22.0 0.00 0.00 0.00 36 1007.8
20260904154713 89 317 11.0 16.0 0.00 0.00 0.00 34 1007.8
20260904153604 89 314 8.0 18.0 0.00 0.00 0.00 35 1007.8
20260904152704 89 298 10.0 21.0 0.00 0.00 0.00 36 1008.1
20260904151804 89 309 11.0 20.0 0.00 0.00 0.00 35 1007.7
20260904151113 90 255 9.0 18.0 0.00 0.00 0.00 35 1007.9
20260904150215 91 301 2.0 24.0 0.00 0.00 0.00 33 1007.8
20260904145617 90 308 4.0 24.0 0.00 0.00 0.00 34 1007.8
20260904144714 90 284 8.0 22.0 0.00 0.00 0.00 34 1007.7
20260904143603 92 344 2.0 25.0 0.00 0.00 0.00 33 1007.5
20260904142914 91 322 4.0 25.0 0.00 0.00 0.00 33 1007.7
20260904142016 93 282 2.0 9.0 0.00 0.00 0.00 32 1007.9
20260904140904 92 310 4.0 18.0 0.00 0.00 0.00 32 1007.6
20260904140216 91 333 4.0 18.0 0.00 0.00 0.00 33 1007.6
20260904135403 92 318 5.0 15.0 0.00 0.00 0.00 33 1007.4
20260904134715 92 289 4.0 17.0 0.00 0.00 0.00 32 1007.4
20260904133817 92 270 5.0 17.0 0.00 0.00 0.00 33 1007.3
20260904132914 93 236 2.0 14.0 0.00 0.00 0.00 34 1007.3
20260904132017 93 278 4.0 22.0 0.00 0.00 0.00 34 1007.5
20260904130904 92 278 6.0 13.0 0.00 0.00 0.00 33 1007.6
20260904130216 94 267 2.0 11.0 0.00 0.00 0.00 33 1007.5
20260904125404 94 314 2.0 17.0 0.00 0.00 0.00 32 1007.6
20260904124715 93 258 3.0 17.0 0.00 0.00 0.00 33 1007.5
20260904123813 93 248 4.0 11.0 0.00 0.00 0.00 34 1007.5
20260904122704 92 260 4.0 18.0 0.00 0.00 0.00 33 1007.7
20260904121803 93 277 3.0 8.0 0.00 0.00 0.00 34 1007.7
20260904120903 92 251 3.0 11.0 0.00 0.00 0.00 33 1007.7
20260904120217 92 256 4.0 18.0 0.00 0.00 0.00 33 1008.0
20260904115403 90 297 6.0 22.0 0.00 0.00 0.00 35 1007.7
20260904114716 92 281 4.0 7.0 0.00 0.00 0.00 32 1008.0
20260904113604 92 229 3.0 9.0 0.00 0.00 0.00 34 1008.1
20260904112916 92 263 3.0 7.0 0.00 0.00 0.00 33 1008.1
20260904112013 92 276 3.0 7.0 0.00 0.00 0.00 34 1008.2
20260904111115 92 261 3.0 8.0 0.00 0.00 0.00 33 1008.3
20260904110005 91 257 2.0 6.0 0.00 0.00 0.00 35 1008.3
20260904105403 92 262 2.0 7.0 0.00 0.00 0.00 34 1008.4
20260904104717 91 297 3.0 15.0 0.00 0.00 0.00 36 1008.3
20260904103603 91 307 4.0 16.0 0.00 0.00 0.00 36 1008.2
20260904102704 89 285 8.0 23.0 0.00 0.00 0.00 40 1008.3
20260904102014 91 270 3.0 13.0 0.00 0.00 0.00 39 1008.1
20260904100904 91 293 3.0 14.0 0.00 0.00 0.00 37 1008.3
20260904100213 90 280 4.0 16.0 0.00 0.00 0.00 39 1008.3
20260904095615 90 255 3.0 15.0 0.00 0.00 0.00 38 1008.4
20260904094717 89 282 3.0 23.0 0.00 0.00 0.00 41 1008.4
20260904093815 89 311 5.0 25.0 0.00 0.00 0.00 41 1008.4
20260904092703 89 344 4.0 25.0 0.00 0.00 0.00 43 1008.5
20260904092014 89 303 8.0 17.0 0.00 0.00 0.00 43 1008.4
20260904090903 90 300 2.0 16.0 0.00 0.00 0.00 41 1008.6
20260904090214 90 310 1.0 18.0 0.00 0.00 0.00 42 1008.4
20260904085403 90 276 2.0 16.0 0.00 0.00 0.00 40 1008.4
20260904084713 89 246 3.0 11.0 0.00 0.00 0.00 41 1008.2
20260904083815 90 316 2.0 15.0 0.00 0.00 0.00 41 1008.4
20260904082703 89 281 2.0 9.0 0.00 0.00 0.00 42 1008.4
20260904082015 89 286 2.0 15.0 0.00 0.00 0.00 42 1008.4
20260904080903 89 299 2.0 20.0 0.00 0.00 0.00 45 1008.5
20260904080003 86 312 8.0 18.0 0.00 0.00 0.00 47 1008.4
20260904075403 88 310 2.0 15.0 0.00 0.00 0.00 45 1008.5
20260904074713 86 331 6.0 23.0 0.00 0.00 0.00 47 1008.4